Current Version              Previous Version:    01  02  03  04  05  06  07  08  09  10  11  12  13  14  15  16  17  18  19  20  21  22  23  24  25  26  27  28  29  30  
   31  32  33  34  35  36  37  38  39  40  41  42  43  44  45  46  47  48  49  50  51  52  53  54  55  56  57  58  59  60  

[Printable]
234
ASUS44 KLUB 241610
RWRTX
WEST TEXAS WEATHER ROUNDUP
NATIONAL WEATHER SERVICE LUBBOCK TX
1100 AM CDT THU JUL 24 2014

NOTE: "FAIR" INDICATES FEW OR NO CLOUDS BELOW 12,000 FEET WITH NO
SIGNIFICANT WEATHER AND/OR OBSTRUCTIONS TO VISIBILITY.

TXZ004-006>008-010-012-014-016-OKZ002-241700-
TEXAS PANHANDLE/OKLAHOMA PANHANDLE

CITY           SKY/WX    TMP DP  RH WIND       PRES   REMARKS
AMARILLO       SUNNY     86  62  44 SW15      30.21S
BORGER         SUNNY     88  61  40 SW14      30.16F
CANADIAN       SUNNY     91  66  44 SW5       30.10F
DALHART        SUNNY     88  56  33 SW16      30.21F
DUMAS          SUNNY     86  59  39 SW20      30.19F
GUYMON         SUNNY     91  58  32 SW21G30   30.10F
HEREFORD       SUNNY     87  63  45 SW14      30.23F
PAMPA          SUNNY     88  59  38 W13       30.18S
PERRYTON       SUNNY     93  59  31 W17       30.12F
$$

TXZ026-029-035-045-048-241700-
SOUTHERN PANHANDLE/SOUTH PLAINS/ROLLING PLAINS

CITY           SKY/WX    TMP DP  RH WIND       PRES   REMARKS
CHILDRESS      SUNNY     89  68  49 VRB5      30.11F
SEMINOLE       SUNNY     86  58  38 CALM      30.20F HAZE
LUBBOCK        SUNNY     86  63  45 SW13      30.19F
PLAINVIEW      SUNNY     83  64  53 W12       30.18F
SNYDER         SUNNY     86  63  45 W3        30.16S
$$

TXZ052-054-060>062-072-078-127-140-154-169-241700-
PERMIAN BASIN/CONCHO VALLEY/BIG COUNTRY/EDWARDS PLATEAU

CITY           SKY/WX    TMP DP  RH WIND       PRES   REMARKS
ABILENE        SUNNY     89  66  46 CALM      30.11S
BIG SPRING     MOSUNNY   87  60  40 SW5       30.17F
BRADY          SUNNY     84  70  61 CALM      30.11S
BROWNWOOD      SUNNY     86  68  54 CALM      30.10S
JUNCTION       CLOUDY    83  69  62 E6        30.10S
MIDLAND        SUNNY     87  62  43 CALM      30.16S
ODESSA           N/A    N/A N/A N/A MISG      30.17F
SAN ANGELO     PTSUNNY   85  67  54 CALM      30.11S
SONORA         PTSUNNY   86  66  51 SE7       30.16S
SWEETWATER     SUNNY     88  61  41 CALM      30.17S
WINK           SUNNY     90  58  33 VRB3      30.14S
$$

TXZ055-058-074-075-080-082-241700-
FAR WEST/SOUTHWEST MOUNTAINS/TRANS PECOS

CITY           SKY/WX    TMP DP  RH WIND       PRES   REMARKS
ALPINE         SUNNY     81  55  40 CALM      30.31S
DRYDEN           N/A     90  64  42 S5        30.10S
EL PASO        MOSUNNY   85  55  35 S5        30.20F
FORT STOCKTON  SUNNY     87  59  38 VRB6      30.16F
GUADALUPE PASS SUNNY     80  55  42 E8        30.34F
MARFA          SUNNY     79  57  47 S6        30.30S
PECOS          SUNNY     88  57  35 CALM      30.13F
PRESIDIO       FAIR      88  57  34 E5        30.13F
$$

TXZ014-016-019-021>030-083-241700
TEXAS TECH WEST TEXAS MESONET/TEXAS PANHANDLE/NORTHERN SOUTH PLAINS

CITY           SKY/WX    TMP DP  RH WIND       PRES   REMARKS
ABERNATHY 5ENE   N/A     87  62  43 SW9       30.21S
AMARILLO 9NNE    N/A     85  64  49 SW12      30.19S
AMARILLO 7SSE    N/A     86  63  46 SW15      30.22S
AMHERST 1NE      N/A     86  60  41 SW9       30.22F
BOOTLEG 11WNW    N/A     84  57  39 SW15      30.27F
CANADIAN 6E      N/A     88  68  51 SW2       30.10S
CAPROCK CYN SP   N/A     89  64  44 SW8       30.15S
CLARENDON 2WSW   N/A     86  64  48 SW6       30.16S
CLAUDE 12SW      N/A     86  64  46 SW6       30.20S
DIMMITT 2NE      N/A     85  60  43 S13       30.24S
FLOYDADA 2NNE    N/A     84  64  49 W8        30.19S
FRIONA 2NE       N/A     85  57  38 SW14      30.25S
GOODLETT 3W      N/A     91  65  42 SW5       30.08S
HART 3N          N/A     82  64  54 W8        30.23F
HEREFORD 2NW     N/A     85  59  40 SW14      30.23F
MCLEAN 1E        N/A     89  65  44 SW9       30.14S
MEMPHIS 1NE      N/A     89  66  45 W5        30.11S
MULESHOE 2SSW    N/A     86  59  40 SW7       30.23S
OLTON 6S         N/A     84  62  46 W8        30.22R
PALO DURO SP     N/A     86  63  45 W12       30.21F
PAMPA 2E         N/A     86  64  47 SW12      30.17S
PLAINVIEW 1S     N/A     84  64  51 W12       30.19F
SILVERTON 7ESE   N/A     86  65  48 SW8       30.19R
TULIA 2ENE       N/A     84  64  49 W13       30.21F
TURKEY 2WSW      N/A     89  65  45 SW9       30.13S
UMBARGER 3NNE    N/A     83  64  52 SW10      30.23F
$$

TXZ033>036-039>041-045>048-241700
TEXAS TECH WEST TEXAS MESONET/SOUTH PLAINS

CITY           SKY/WX    TMP DP  RH WIND       PRES   REMARKS
AIKEN 3WSW       N/A     85  66  53 SW10      30.21S
ANDREWS 2NE      N/A     88  55  32 E3        30.18F
ANTON 6SSW       N/A     86  63  44 W7        30.20F
BROWNFIELD 2S    N/A     85  60  42 SW6       30.20F
DENVR CTY 7WNW   N/A     85  56  37 SW3       30.21F
GAIL 2ESE        N/A     89  61  38 SW1       30.14F
LAMESA 2SE       N/A     87  61  41 SW3       30.18F
LEVELLAND 4S     N/A     85  61  43 S3        30.21S
LUBBOCK 3WNW     N/A     86  61  42 SW7       30.19F
MORTON 1ENE      N/A     86  59  40 SW7       30.23S
ODONNELL 1N      N/A     87  59  39 SW7       30.18F
PLAINS 3N        N/A     86  60  40 W3        30.22F
RALLS 1SE        N/A     84  66  54 W7        30.19S
REESE CENTER     N/A     85  61  43 W9        30.20S
SEAGRAVES 1SW    N/A     87  59  39 SW3       30.20S
SEMINOLE 2NNE    N/A     87  58  36 S5        30.19F
SLATON 2NE       N/A     86  62  43 SW6       30.18S
SNYDER 3E        N/A     88  61  40 SW3       30.15S
SUNDOWN 8SW      N/A     87  61  42 S6        30.22S
TAHOKA 3NNE      N/A     88  60  39 SW5       30.18S
WOLFFORTH 6SSW   N/A     86  61  42 W6        30.19F
$$

TXZ031-032-036>038-042>044-241700-
TEXAS TECH WEST TEXAS MESONET/ROLLING PLAINS

CITY           SKY/WX    TMP DP  RH WIND       PRES   REMARKS
ASPERMONT 3NE    N/A     90  65  43 W7        30.10F
FLUVANNA 3WNW    N/A     87  61  40 SW5       30.16S
GRAHAM 5SSW      N/A     88  60  38 SW3       30.17S
GUTHRIE 10WSW    N/A     90  65  43 SW6       30.11S
HASKELL 1NW      N/A     89  62  40 W5        30.09S
JAYTON 1SSE      N/A     89  64  42 W5        30.12S
KNOX CITY 3NW    N/A     91  62  36 SW7       30.09S
LK A HENRY 1NW   N/A     91  62  39 SW3       30.13S
NORTHFIELD 1S    N/A     91  68  48 NW5       30.11S
ODELL 4ENE       N/A     88  71  57 E6        30.09R
PADUCAH 10SW     N/A     91  65  43 W6        30.10F
POST 1NE         N/A     89  60  36 W6        30.15S
RRING SPRGS 3N   N/A     89  65  46 W8        30.15S
SEYMOUR 3NW      N/A     90  65  42 NE5       30.08S
SPUR 1W          N/A     89  62  41 W5        30.13S
WEINERT 2NNE     N/A     90  66  45 W6        30.09S
WHITE RVR 6NE    N/A     89  63  42 W6        30.15F
$$

TXZ052-054-060>062-072-078-127-140-154-169-241700-
TEXAS TECH WEST TEXAS MESONET/PERMIAN BASIN/
CONCHO VALLEY/BIG COUNTRY/EDWARDS PLATEAU

CITY           SKY/WX    TMP DP  RH WIND       PRES   REMARKS
COYANOSA 2N      N/A     92  60  34 E8        30.14S
JUNCTION 1SSW    N/A     85  70  60 NE3       30.10F
MERTZON 3NNE     N/A     88  66  47 NW7       30.13S
SAN ANGELO 7NW   N/A     85  64  49 S3        30.12S
STRLNG CT 4WSW   N/A     89  64  42 N2        30.14S
ST LAWRNCE 5SW   N/A     88  59  37 W3        30.15F
SWEETWATR 11SW   N/A     89  64  43 SW2       30.16S
WALL 1E          N/A     84  65  52 CALM      30.12S
$$

TXZ055-058-074-075-080-082-241700-
TEXAS TECH WEST TEXAS MESONET/FAR WEST/SOUTHWEST MOUNTAINS/TRANS PECOS

CITY           SKY/WX    TMP DP  RH WIND       PRES   REMARKS
PRSMN GAP BBNP   N/A     89  59  36 S5        30.14S
GUADLPE MTN NP   N/A     78  51  38 CALM      30.35S
$$